Theta_e
322 322 323 324 324 323 323 323 323 323 322 322 321 321 321 321 319 307 299 307 314 322 318 303 302 302 303 300 299 296 289 285 286 288 288 289 289 289 290 291 290 293 292 295 308
322 322 322 323 323 323 323 323 322 323 322 321 321 321 321 320 304 300 315 321 321 320 302 300 299 301 297 297 296 291 286 287 291 290 289 291 290 290 289 289 289 292 299 306 308
322 322 322 322 322 322 322 322 322 322 322 321 321 321 320 314 299 297 322 320 321 314 302 300 301 299 294 294 293 290 286 290 292 292 292 291 290 290 289 287 290 291 298 305 306
321 321 321 320 321 321 321 321 321 321 321 321 321 320 319 307 290 299 319 319 320 308 301 298 297 294 292 291 294 289 291 293 293 291 290 289 290 288 288 289 290 293 303 305 306
321 321 320 320 319 320 319 320 320 320 321 321 320 320 308 296 296 303 321 318 307 303 298 297 294 293 291 291 292 289 290 292 291 289 288 290 288 287 288 289 293 300 304 304 305
320 320 319 319 319 318 319 319 319 320 320 320 319 319 301 292 299 303 303 303 301 299 297 297 295 295 292 291 290 290 290 289 289 289 290 288 288 289 288 292 297 300 300 301 303
319 319 319 318 318 318 318 318 319 318 318 318 319 310 301 295 299 300 300 298 299 299 296 297 297 293 292 289 292 291 287 289 287 288 289 289 288 288 288 293 296 297 298 299 300
318 317 318 318 318 317 317 317 317 318 316 316 318 305 293 300 300 299 299 298 298 300 300 299 299 296 293 292 292 288 287 284 287 289 289 288 283 286 287 291 292 295 296 298 299
317 317 317 317 316 317 316 316 316 316 315 317 304 299 293 306 298 299 299 297 298 300 299 302 300 293 292 288 285 285 280 282 286 290 288 286 284 285 287 288 289 291 293 296 297
316 315 316 316 315 316 315 314 316 311 309 307 301 296 296 295 298 299 300 299 297 298 297 296 293 289 287 285 280 281 282 282 283 287 288 285 286 287 287 287 287 288 289 292 295
315 314 315 316 315 315 307 302 295 294 297 292 292 294 295 298 300 299 300 298 298 295 288 292 287 284 287 286 284 284 283 282 283 286 286 285 285 287 288 286 286 285 286 288 292
314 314 314 315 314 314 301 296 295 296 292 296 295 295 297 298 294 297 300 293 292 287 291 289 284 286 288 287 286 284 282 282 283 286 284 283 284 286 286 285 285 287 286 287 287
313 313 314 315 311 301 296 297 300 299 292 294 295 295 295 298 293 294 296 294 289 287 289 285 285 290 288 285 285 282 282 281 281 283 283 281 281 280 283 284 286 285 286 287 288
313 313 314 314 301 297 295 299 301 300 285 288 292 294 296 297 291 297 297 294 290 287 288 287 287 286 284 284 284 281 284 283 283 279 276 280 275 279 280 282 283 282 284 285 286
312 312 313 313 298 295 297 301 301 294 275 290 292 299 297 293 293 293 297 293 288 288 288 284 283 283 283 283 284 282 285 283 281 277 274 277 272 280 281 281 281 283 283 284 285
311 312 313 305 299 299 301 301 298 284 275 287 291 291 290 291 291 293 292 294 292 288 286 283 286 285 284 286 285 286 283 282 279 276 268 272 274 277 279 279 280 282 283 285 285
310 312 311 303 297 302 303 296 283 277 287 285 287 289 288 287 288 289 287 285 284 281 281 283 282 284 286 284 286 283 280 272 270 268 271 274 273 279 279 280 281 282 283 285 285
310 312 306 301 302 304 300 290 277 283 284 288 287 286 284 287 285 286 285 283 284 283 279 279 278 282 284 283 282 280 279 274 267 269 273 276 273 279 280 281 282 284 283 285 286
310 302 302 302 305 302 292 279 280 283 287 286 285 282 282 284 284 283 283 282 283 284 282 279 278 282 284 284 283 281 278 279 270 267 268 274 275 277 280 280 281 282 284 284 285
301 301 302 302 303 298 289 285 284 287 287 286 282 282 279 282 281 281 281 283 284 285 283 281 277 281 282 284 284 282 282 277 273 265 267 271 272 275 277 279 281 280 281 282 283
300 297 300 302 300 294 285 284 286 287 287 284 282 281 281 281 281 280 280 283 285 284 284 280 278 277 280 279 278 279 274 277 277 273 267 266 273 278 278 280 280 280 281 282 283
297 290 300 299 290 286 285 286 290 286 287 285 284 283 282 282 280 279 280 282 286 286 282 281 278 274 277 277 278 279 279 278 274 269 267 267 272 278 275 275 276 279 282 282 283
294 293 301 298 285 284 285 287 288 285 285 285 283 284 284 281 280 282 283 286 286 285 283 283 277 272 276 278 278 276 280 273 272 271 267 268 271 278 277 276 279 279 280 282 281
295 289 293 293 290 287 284 284 285 290 287 287 284 286 283 281 283 281 282 286 288 288 292 287 279 276 273 275 275 270 277 278 269 268 268 268 268 273 278 279 278 279 275 276 281
293 290 290 284 287 285 285 285 285 285 288 288 285 285 283 280 282 281 284 285 287 290 284 282 274 277 277 278 277 273 274 276 269 267 271 268 270 270 273 276 272 268 276 279 275
293 291 291 288 289 287 288 285 285 285 285 285 284 285 284 282 283 282 283 283 282 282 280 279 272 270 265 275 269 268 272 273 275 265 265 260 267 272 265 274 278 280 279 276 275
294 293 292 286 285 285 285 285 286 287 286 285 286 281 281 281 281 279 279 279 281 281 277 272 271 266 265 271 267 264 267 267 267 261 268 267 271 275 276 278 277 275 276 271 266
Wind_Speed
9 9 9 9 9 8 7 8 8 7 6 6 5 5 5 5 5 0 3 3 4 4 3 4 3 3 2 4 3 3 5 2 4 6 3 2 3 1 2 7 1 1 2 0 16
9 9 8 8 8 7 8 6 7 7 6 5 4 5 4 4 1 3 2 4 3 4 3 5 4 3 3 2 2 5 4 8 4 3 3 4 3 7 4 4 2 2 5 12 15
10 10 10 9 8 8 8 7 7 7 6 5 5 5 4 3 1 2 3 3 3 3 2 2 5 3 2 2 2 2 4 3 3 2 1 2 3 3 6 4 7 8 9 14 16
11 10 9 8 7 7 8 9 7 7 5 4 5 5 4 1 3 0 3 3 4 4 3 4 4 4 3 3 3 1 2 3 1 1 2 1 2 1 5 2 2 5 17 16 18
10 11 11 10 8 7 6 6 7 6 6 3 3 5 1 1 6 2 4 5 4 3 4 3 4 4 3 3 4 2 2 2 1 1 1 1 1 3 5 1 5 12 14 15 15
13 12 12 10 9 7 7 6 4 5 4 3 2 2 2 4 1 4 6 5 3 3 3 3 4 5 4 2 3 2 2 1 0 1 1 0 1 1 1 4 7 11 11 11 13
13 13 12 11 9 8 6 6 4 2 2 3 3 2 2 6 2 4 3 2 3 3 4 2 3 2 3 3 2 3 1 2 2 1 0 1 4 7 2 5 7 7 7 8 9
13 14 12 10 9 8 8 6 5 2 2 3 4 1 5 1 1 3 2 2 3 3 3 2 2 4 3 3 6 3 4 2 1 3 0 3 7 1 3 8 8 7 7 8 8
12 13 13 11 8 7 8 6 2 3 3 3 1 1 4 2 2 2 1 3 3 3 3 3 4 3 4 5 4 5 2 4 3 4 2 3 6 1 3 5 7 8 8 8 7
13 12 13 11 9 6 4 2 5 4 3 2 1 1 1 3 3 2 1 4 3 4 4 5 5 4 3 4 6 6 4 4 3 2 0 1 10 6 3 6 8 8 8 8 9
12 12 12 12 9 5 3 4 4 3 1 6 3 2 2 1 1 2 1 3 3 4 4 1 4 7 10 5 3 5 3 2 2 1 2 5 8 12 6 5 7 8 8 9 10
13 12 11 12 8 2 2 3 2 2 3 4 2 1 0 3 3 0 2 4 3 4 4 4 6 5 3 5 4 2 2 4 1 1 1 4 12 8 4 2 3 7 9 9 4
13 12 11 10 3 3 2 3 2 1 1 2 3 3 2 4 2 6 4 3 3 5 5 6 2 4 4 4 5 3 5 4 3 2 3 4 8 3 3 3 7 7 5 6 9
13 13 11 9 1 2 3 2 1 1 3 3 3 3 2 4 1 0 0 3 1 8 7 3 1 3 3 3 5 4 1 3 4 5 4 3 6 5 2 3 7 9 9 6 5
12 11 9 5 2 2 1 1 1 4 3 2 2 1 1 4 5 2 1 2 5 5 6 4 1 3 3 2 0 2 4 5 3 5 4 2 5 9 3 2 5 9 9 8 4
12 11 8 2 0 1 1 2 3 6 8 3 3 4 4 1 1 2 2 4 3 4 5 3 1 3 3 2 2 7 6 7 5 4 3 4 5 8 1 2 4 5 7 8 6
12 10 3 2 2 3 2 3 4 5 1 4 4 4 3 4 2 3 4 3 5 5 4 2 1 1 2 6 4 4 6 3 6 4 7 2 3 9 1 1 0 4 7 7 6
12 8 3 1 2 3 2 3 4 4 5 3 3 3 5 5 2 3 4 3 2 3 4 6 4 3 3 1 6 3 5 7 8 4 2 3 6 6 3 3 3 3 3 6 8
9 1 2 2 4 3 4 2 8 6 3 8 3 3 4 2 5 3 5 5 6 7 8 5 2 1 3 1 2 4 3 3 9 2 4 3 6 2 3 3 4 5 7 8 8
1 1 1 2 4 3 3 6 3 1 3 2 8 4 7 5 5 6 7 3 5 3 1 4 4 1 0 1 4 3 3 4 3 3 4 4 5 6 5 6 4 5 6 6 6
2 0 2 2 2 3 4 6 2 0 0 4 6 4 3 6 7 5 4 1 2 3 3 4 4 1 2 4 7 2 2 4 4 4 6 2 7 3 4 7 8 6 4 5 6
2 1 1 1 3 1 3 2 1 2 1 1 2 2 6 6 4 4 7 0 3 6 6 1 5 3 2 1 0 1 4 4 5 6 2 4 8 2 1 3 5 4 3 3 4
2 2 1 3 3 3 2 0 0 3 2 3 3 1 1 5 3 3 4 1 3 3 6 6 1 3 2 2 1 1 2 3 3 3 6 7 8 2 3 2 3 4 0 4 5
1 1 2 2 1 4 5 4 3 1 1 1 2 2 3 3 3 5 3 1 2 2 6 3 3 5 7 4 5 2 5 4 3 4 4 7 3 4 3 5 5 4 3 2 3
2 1 1 3 3 2 2 4 4 4 1 1 1 2 4 4 3 3 3 3 4 3 4 4 4 1 1 2 2 4 5 9 7 5 7 6 8 7 8 9 4 4 1 3 4
2 2 2 0 1 4 2 5 7 2 3 3 3 3 2 3 2 7 6 4 4 2 3 3 3 3 4 3 4 3 5 9 8 3 2 3 7 5 3 1 1 3 1 1 2
1 3 4 1 2 3 3 3 6 8 0 2 2 4 4 3 4 4 4 6 5 6 4 4 6 4 4 3 3 6 11 9 5 3 9 6 9 2 3 2 1 3 4 4 5
Wind_Direction
342 337 335 328 324 326 325 320 310 302 299 301 306 306 309 319 295 94 240 188 151 127 109 127 78 89 65 91 79 131 67 187 227 162 227 163 129 66 112 113 133 27 136 92 136
343 336 335 331 327 327 320 309 301 296 296 297 294 301 313 324 245 255 204 136 125 124 140 133 130 115 49 74 39 88 116 216 206 193 209 157 159 164 139 125 209 120 15 124 136
342 342 339 337 336 333 324 312 313 304 302 308 310 299 314 343 11 258 139 119 141 118 94 91 110 99 94 113 160 158 184 211 227 181 189 153 127 165 131 210 203 194 159 152 150
341 340 339 329 327 325 322 315 312 309 294 290 299 307 339 325 194 133 160 162 129 118 90 104 86 101 130 165 162 151 219 185 151 112 109 189 115 195 187 202 333 174 159 153 163
342 338 338 333 325 319 316 313 313 308 296 290 319 320 0 79 250 153 134 109 95 114 141 132 130 138 184 167 128 180 179 98 38 91 105 72 234 240 248 91 77 123 150 160 163
340 341 338 334 323 315 312 315 315 313 303 280 261 276 222 229 139 116 120 118 152 130 138 138 182 192 124 160 154 146 112 90 23 349 14 151 280 104 21 107 114 146 156 159 165
338 338 337 332 325 316 312 303 290 287 283 256 221 215 78 243 64 137 149 134 160 139 141 167 135 110 119 114 121 106 19 333 215 208 82 104 267 234 132 126 151 156 150 146 158
341 337 335 331 323 315 308 303 285 217 192 218 198 161 232 126 163 135 149 98 90 88 102 120 119 101 79 116 28 71 56 14 269 153 35 101 268 181 141 145 175 179 171 158 169
340 338 333 328 322 315 311 302 203 152 122 129 118 169 263 133 154 158 186 136 101 72 59 89 65 92 55 93 20 14 216 209 302 194 107 142 264 346 147 176 192 197 193 180 174
336 340 334 324 319 312 306 254 126 112 94 151 286 342 212 204 130 128 34 131 119 109 66 57 57 84 51 104 211 204 210 237 244 198 114 215 265 256 200 186 218 213 208 199 198
335 335 335 322 312 295 109 74 28 336 33 178 204 260 141 111 152 58 60 109 95 67 144 27 113 200 207 186 128 130 175 195 192 78 209 239 269 278 260 202 235 231 223 218 215
332 332 333 321 306 237 105 172 206 268 290 201 228 235 136 180 112 149 133 137 143 164 119 49 234 217 138 159 167 173 194 250 298 87 155 1 285 271 256 229 224 237 231 227 180
328 326 326 318 294 79 182 235 149 217 269 215 183 184 204 134 193 187 138 139 140 143 182 160 221 137 146 143 147 179 178 192 187 90 60 331 294 324 46 73 28 7 304 221 199
326 322 321 313 200 207 240 129 118 104 35 232 217 228 120 142 184 299 67 146 130 185 158 224 327 147 140 168 131 203 209 108 120 89 223 21 268 298 28 57 23 3 5 340 204
321 314 310 279 211 156 218 146 142 62 8 159 169 203 124 150 133 4 319 62 164 148 117 239 131 147 158 154 180 180 70 87 81 94 53 307 77 268 11 73 358 353 356 356 32
319 315 310 172 215 226 136 103 61 55 252 172 131 164 125 111 96 114 82 42 121 99 50 89 43 44 110 81 51 155 75 51 54 77 36 251 131 282 161 328 329 345 356 358 30
318 310 291 192 232 125 107 66 63 160 207 187 182 167 155 153 146 147 154 122 149 132 200 45 46 46 63 83 24 75 75 356 355 9 218 215 63 242 95 27 0 356 357 7 34
313 303 249 220 136 113 70 68 190 230 200 114 122 100 167 158 166 132 120 168 232 104 117 161 285 161 3 78 174 173 147 158 199 197 239 69 236 264 115 101 57 44 11 32 39
315 265 234 232 134 84 84 116 208 203 150 145 79 144 213 185 142 130 189 198 195 183 174 141 199 32 44 28 74 191 194 133 101 50 53 223 288 87 118 90 63 56 48 32 31
285 197 145 81 114 75 87 243 223 135 119 145 188 166 181 192 156 173 183 188 177 189 132 190 105 357 144 123 40 136 164 86 359 135 247 291 281 238 193 181 146 88 70 42 31
223 136 37 44 82 60 203 230 208 16 231 186 203 151 180 175 173 192 193 164 158 123 103 123 97 201 126 194 177 104 359 38 108 117 165 184 264 221 233 172 161 132 86 44 27
82 166 339 209 118 273 208 213 84 172 291 212 110 119 169 162 148 195 200 126 155 153 157 161 137 155 170 311 245 73 183 159 130 245 81 142 271 6 316 151 142 140 18 18 19
147 146 133 71 188 225 284 255 149 183 212 176 152 177 151 165 145 140 129 18 160 129 162 193 286 83 345 24 69 189 187 104 108 84 202 135 260 40 121 126 179 168 207 34 17
133 88 30 70 325 155 169 208 200 310 144 79 135 117 122 126 20 158 128 84 87 99 82 119 108 156 187 184 122 154 186 163 121 119 174 219 254 296 229 199 213 184 41 21 23
352 181 195 209 253 179 129 135 150 192 63 102 41 237 166 136 123 157 117 115 42 88 54 93 151 115 51 44 84 189 161 188 192 194 162 238 184 242 215 214 213 184 120 9 17
105 146 61 50 174 134 159 225 176 159 150 206 193 140 128 157 182 182 134 180 178 75 87 13 154 83 334 93 64 275 226 196 210 244 300 146 268 227 267 173 199 229 239 284 336
34 36 111 292 63 98 234 197 195 145 350 44 152 124 119 126 98 81 62 72 118 140 121 96 128 94 263 6 18 330 228 180 180 220 150 172 224 179 160 151 228 212 185 230 252